This is the latest recevied weather packets stored in our database for station/object WD7OO. If no packets are shown the sender has not sent any weather packets the latest 10 day(s).
| Time | Temp. | Humidity | Pressure | Rain* | Wind** | Luminosity | Snow |
|---|---|---|---|---|---|---|---|
| 1787868784 | 25.56° C | 62% | 1016.9 hPa | 0 mm | - | 233 W/m² | - |
| 1787868483 | 25.56° C | 63% | 1016.8 hPa | 0 mm | - | 244 W/m² | - |
| 1787868182 | 25.56° C | 61% | 1016.9 hPa | 0 mm | - | 262 W/m² | - |
| 1787867878 | 26.11° C | 61% | 1017 hPa | 0 mm | - | 269 W/m² | - |
| 1787867573 | 26.11° C | 60% | 1017 hPa | 0 mm | - | 275 W/m² | - |
| 1787867273 | 26.11° C | 63% | 1016.8 hPa | 0 mm | - | 288 W/m² | - |
| 1787866969 | 26.11° C | 64% | 1016.8 hPa | 0 mm | - | 295 W/m² | - |
| 1787866664 | 26.11° C | 63% | 1016.8 hPa | 0 mm | - | 294 W/m² | - |
| 1787866362 | 26.11° C | 63% | 1016.8 hPa | 0 mm | - | 346 W/m² | - |
| 1787866058 | 26.11° C | 63% | 1016.9 hPa | 0 mm | - | 356 W/m² | - |
| 1787865752 | 26.11° C | 65% | 1016.6 hPa | 0 mm | - | 370 W/m² | - |
| 1787865447 | 26.67° C | 65% | 1016.7 hPa | 0 mm | - | 416 W/m² | - |
| 1787865142 | 26.67° C | 67% | 1016.8 hPa | 0 mm | - | 407 W/m² | - |
| 1787864847 | 25.56° C | 64% | 1016.8 hPa | 0 mm | - | 434 W/m² | - |
| 1787864539 | 24.44° C | 71% | 1016.7 hPa | 0 mm | - | 442 W/m² | - |
| 1787864233 | 26.11° C | 67% | 1016.6 hPa | 0 mm | - | 75 W/m² | - |
| 1787863928 | 26.67° C | 65% | 1016.8 hPa | 0 mm | - | 475 W/m² | - |
| 1787863626 | 27.22° C | 63% | 1016.8 hPa | 0 mm | - | 505 W/m² | - |
| 1787863320 | 27.22° C | 64% | 1016.8 hPa | 0 mm | - | 491 W/m² | - |
| 1787863017 | 27.78° C | 65% | 1016.8 hPa | 0 mm | - | 559 W/m² | - |
| 1787862711 | 27.22° C | 66% | 1016.5 hPa | 0 mm | - | 602 W/m² | - |
| 1787862406 | 27.22° C | 65% | 1016.9 hPa | 0 mm | - | 534 W/m² | - |
| 1787862102 | 26.67° C | 68% | 1016.7 hPa | 0 mm | - | 507 W/m² | - |
| 1787861802 | 26.67° C | 70% | 1016.7 hPa | 0 mm | - | 531 W/m² | - |
| 1787861499 | 26.11° C | 70% | 1016.9 hPa | 0 mm | - | 620 W/m² | - |
* Rain latest hour (hover to see other rain measurements)
** Current wind speed in m/s (hover to see current wind gust speed)